Kamloops,

5:49 AM PDT on August 18, 2017 (GMT -0700)
Kamloops

Weather History for CYKA - February, 2013

Change the Weather History Date:

Wednesday, February 27, 2013

  Actual Average Record
Temperature  
Mean Temperature 40 °F -  
Max Temperature 49 °F 49 °F 57 °F (2016)
Min Temperature 32 °F 29 °F 17 °F (2014)
Degree Days  
Heating Degree Days 24    
Moisture  
Dew Point 28 °F    
Average Humidity 63    
Maximum Humidity 87    
Minimum Humidity 23    
Precipitation  
Precipitation 0.00 in 0.01 in - ()
Sea Level Pressure  
Sea Level Pressure 30.20 in    
Wind  
Wind Speed 9 mph ()    
Max Wind Speed 18 mph    
Max Gust Speed 21 mph    
Averages and records for this station are not official NWS values.
T = Trace of Precipitation, MM = Missing Value Source: Averaged Metar Reports

Daily Weather History Graph

Daily Weather History Graph

Search for Another Location

Airport or City:

Trip Planner

Search our weather history database for the weather conditions in past years. The results will help you decide how hot, cold, wet, or windy it might be!

Date:

Astronomy

Feb. 27, 2013 Rise Set
Actual Time 6:49 AM PST 5:40 PM PST
Civil Twilight 6:16 AM PST 6:13 PM PST
Nautical Twilight 5:38 AM PST 6:51 PM PST
Astronomical Twilight 5:00 AM PST 7:29 PM PST
Moon 8:29 PM PST (2/27) 7:09 AM PST (2/27)
Length of Visible Light 11h 57m
Length of Day
10h 51m
Waning Gibbous, 96% of the Moon is Illuminated
Feb 27
Waning Gibbous
Mar 4
Last Quarter
Mar 11
New
Mar 19
First Quarter
Mar 27
Full

Hourly Weather History & Observations

Time (PST) Temp. Windchill Dew Point Humidity Pressure Visibility Wind Dir Wind Speed Gust Speed Precip Events Conditions
12:00 AM 37.4 °F 27.5 °F 32.0 °F 81% 30.15 in 40.0 mi ESE 18.4 mph - N/A   Overcast
1:00 AM 37.4 °F 28.9 °F 32.0 °F 81% 30.14 in 40.0 mi East 13.8 mph - N/A   Mostly Cloudy
2:00 AM 35.6 °F 27.5 °F 32.0 °F 87% 30.16 in 40.0 mi East 11.5 mph - N/A   Mostly Cloudy
3:00 AM 35.6 °F 27.1 °F 32.0 °F 87% 30.16 in 40.0 mi East 12.7 mph - N/A   Mostly Cloudy
4:00 AM 35 °F - 31 °F 80% 30.16 in 37 mi East 11.5 mph - -   Scattered Clouds
4:00 AM 35.6 °F 27.5 °F 32.0 °F 87% 30.16 in 40.0 mi East 11.5 mph - N/A   Mostly Cloudy
5:00 AM 35.6 °F 26.6 °F 32.0 °F 87% 30.17 in 40.0 mi East 13.8 mph - N/A   Mostly Cloudy
6:00 AM 33.8 °F - 30.2 °F 87% 30.19 in 40.0 mi Calm Calm - N/A   Mostly Cloudy
7:00 AM 32.0 °F 26.4 °F 26.6 °F 80% 30.22 in 40.0 mi WSW 5.8 mph - N/A   Partly Cloudy
8:00 AM 32.0 °F - 26.6 °F 80% 30.24 in 40.0 mi SW 2.3 mph - N/A   Partly Cloudy
9:00 AM 35.6 °F 31.7 °F 28.4 °F 75% 30.25 in 40.0 mi West 4.6 mph - N/A   Partly Cloudy
10:00 AM 37 °F - 29 °F 65% 30.25 in 31 mi WSW 3.5 mph - -   Scattered Clouds
11:00 AM 41.0 °F - 30.2 °F 65% 30.24 in 40.0 mi SW 2.3 mph - N/A   Partly Cloudy
12:00 PM 44.6 °F 43.1 °F 28.4 °F 53% 30.22 in 40.0 mi SE 3.5 mph - N/A   Partly Cloudy
1:00 PM 46.4 °F 45.2 °F 26.6 °F 46% 30.20 in 40.0 mi East 3.5 mph - N/A   Scattered Clouds
2:00 PM 46.4 °F - 24.8 °F 43% 30.18 in 40.0 mi SW 2.3 mph - N/A   Mostly Cloudy
3:00 PM 48.2 °F - 23.0 °F 37% 30.17 in 40.0 mi SE 9.2 mph - N/A   Overcast
4:00 PM 47 °F - 21 °F 23% 30.17 in 37 mi SSE 16.1 mph - -   Overcast
4:00 PM 48.2 °F - 21.2 °F 34% 30.17 in 40.0 mi SSE 16.1 mph - N/A   Overcast
5:00 PM 46.4 °F 40.1 °F 19.4 °F 34% 30.18 in 40.0 mi South 15.0 mph - N/A   Overcast
6:00 PM 44.6 °F 38.8 °F 21.2 °F 39% 30.21 in 40.0 mi SW 11.5 mph 18.4 mph N/A   Overcast
7:00 PM 42.8 °F 38.0 °F 24.8 °F 49% 30.24 in 40.0 mi South 8.1 mph - N/A   Overcast
8:00 PM 42.8 °F 37.5 °F 26.6 °F 53% 30.23 in 40.0 mi East 9.2 mph - N/A   Overcast
9:00 PM 41.0 °F 33.1 °F 28.4 °F 61% 30.24 in 40.0 mi East 15.0 mph 20.7 mph N/A   Overcast
10:00 PM 39 °F - 29 °F 56% 30.25 in 37 mi East 11.5 mph - -   Partly Cloudy
10:00 PM 39.2 °F 32.0 °F 28.4 °F 65% 30.25 in 40.0 mi East 11.5 mph - N/A   Mostly Cloudy
11:00 PM 37.4 °F 29.8 °F 28.4 °F 70% 30.25 in 40.0 mi East 11.5 mph - N/A   Partly Cloudy